[[{"header":{"parameterUnit":"m.s-1","parameterCategory":2,"la1":30.2992,"la2":30.254,"lo1":-89.0895,"lo2":-89.0443,"dy":0.0025,"dx":0.0025,"nx":19,"ny":19,"refTime":"2026-05-15T21:00:00:Z","depth":"0","parameterNumber":2,"parameterNumberName":"U-component_of_CURRENTS"},"data":[0,0,0,0.1325,0.1326,0.1351,0.1351,0.1424,0.1424,0,0,0,0,0,0,0,0,0,0,0,0.1313,0.1313,0.1325,0.1326,0.1351,0.1351,0.1424,0.1424,0,0,0,0,0,0,0,0,0,0,0,0.1313,0.1313,0.1313,0.1326,0.1351,0.1351,0.1423,0.1395,0,0,0,0,0,0,0,0,0,0,0.1366,0.1345,0.1313,0.1313,0.1326,0.1351,0.1351,0.1393,0.1397,0.1422,0,0.1421,0,0.1425,0.143,0.143,0,0,0,0.1329,0.1342,0.1351,0.1313,0.1326,0.1351,0.1341,0.1395,0.1399,0.1427,0.1422,0.1424,0.1427,0.143,0.1431,0.1498,0.1498,0,0,0.1328,0.1319,0.1348,0.1354,0.1327,0.134,0.1341,0.1397,0.1398,0.1422,0.1426,0.1428,0.1431,0.1431,0.1498,0.1498,0,0,0,0.1321,0.1318,0.1325,0.1351,0.1353,0.134,0.1342,0.1396,0.1398,0.1427,0.1429,0.1431,0.1432,0.1498,0.1498,0.1495,0,0,0,0.1321,0.1314,0.1324,0.1319,0.1351,0.1369,0.134,0.1394,0.1401,0.1428,0.1431,0.1433,0.1498,0.1498,0.1495,0.1492,0,0,0,0.1313,0.1313,0.1314,0.1318,0.1328,0.1368,0.1374,0.1396,0.1403,0.143,0.1433,0.1497,0.1498,0.1494,0.1492,0.1497,0,0,0,0.1306,0.1292,0.1314,0.1307,0.1328,0.1348,0.1373,0.1391,0.1411,0.1432,0.1498,0.1498,0.1494,0.1492,0.1497,0.1372,0.1363,0,0,0.1281,0.1289,0.1286,0.1306,0.1314,0.1345,0.1369,0.1404,0.1427,0.1483,0.1484,0.1495,0.1492,0.1497,0.139,0.138,0,0,0,0.1275,0.1269,0.1276,0.1288,0.1315,0.1352,0.1388,0.1413,0.1459,0.1441,0.1502,0.15,0.1504,0.1428,0.1421,0.1134,0.1499,0.1499,0.1499,0.1217,0.1243,0.1249,0.1286,0.1309,0.136,0.1398,0.1443,0.1462,0.1482,0.1503,0.1512,0.1431,0.1424,0.1131,0.151,0.151,0.151,0.151,0.1184,0.1191,0.1241,0.1254,0.1311,0.134,0.1421,0.1445,0.1508,0.1512,0.1515,0.1435,0.1416,0.1105,0.151,0.151,0.151,0.151,0.151,0.1138,0.1152,0.1172,0.1226,0.1271,0.1335,0.1381,0.1439,0.1496,0.1519,0.1431,0.1429,0.1152,0.1513,0.1513,0.1513,0.1513,0.1513,0.1513,0.1089,0.1117,0.1153,0.1202,0.1246,0.1293,0.136,0.1396,0.1407,0.1418,0.1417,0.1102,0.1513,0.1508,0.1514,0.1513,0.1513,0.1513,0.1513,0.104,0.107,0.1131,0.1177,0.1267,0.126,0.1319,0.1291,0.1318,0.1299,0.0943,0.1367,0.1356,0.136,0.1351,0.1316,0.1316,0.1316,0.1316,0.1021,0.1035,0.1148,0.1228,0.1278,0.1266,0.1179,0.1115,0.0908,0.0713,0.07,0.0617,0.0638,0.0581,0.0603,0.0577,0.0347,0.0345,0.0343,0.1019,0.107,0.1145,0.1237,0.1295,0.1237,0.1078,0.0813,0.0411,0.0278,0.0321,0.0363,0.0219,0.0275,0.0176,0.0229,0.0186,0,0]},{"header":{"parameterUnit":"m.s-1","parameterCategory":2,"la1":30.2992,"la2":30.254,"lo1":-89.0895,"lo2":-89.0443,"dy":0.0025,"dx":0.0025,"nx":19,"ny":19,"refTime":"2026-05-15T21:00:00:Z","depth":"0","parameterNumber":3,"parameterNumberName":"V-component_of_CURRENTS"},"data":[0,0,0,0.0331,0.0333,0.0418,0.0418,0.054,0.0541,0,0,0,0,0,0,0,0,0,0,0,0.03,0.03,0.0331,0.0333,0.0418,0.0418,0.054,0.0541,0,0,0,0,0,0,0,0,0,0,0,0.03,0.03,0.0301,0.0333,0.0418,0.0418,0.054,0.0474,0,0,0,0,0,0,0,0,0,0,0.0391,0.0354,0.03,0.0301,0.0334,0.0418,0.0418,0.0471,0.0478,0.0504,0,0.0512,0,0.0528,0.0549,0.055,0,0,0,0.034,0.0348,0.0373,0.0301,0.0334,0.0417,0.0382,0.0475,0.0483,0.0513,0.0513,0.0518,0.053,0.055,0.0551,0.0696,0.0697,0,0,0.0336,0.0317,0.0367,0.0378,0.0351,0.0379,0.0384,0.048,0.0485,0.0514,0.0521,0.0532,0.0551,0.0552,0.0696,0.0696,0,0,0,0.0317,0.0313,0.0336,0.0373,0.0387,0.0381,0.0387,0.0481,0.0489,0.0522,0.0534,0.0551,0.0553,0.0695,0.0696,0.0694,0,0,0,0.0315,0.0302,0.0333,0.0323,0.0385,0.0433,0.0386,0.0482,0.0494,0.0533,0.0551,0.0554,0.0694,0.0695,0.0693,0.0697,0,0,0,0.0297,0.0301,0.0309,0.0322,0.0356,0.0431,0.0445,0.0485,0.05,0.055,0.0554,0.0693,0.0695,0.0691,0.0695,0.0789,0,0,0,0.0277,0.0291,0.0308,0.0336,0.0355,0.0426,0.0445,0.0502,0.0544,0.0552,0.0694,0.0696,0.0691,0.0693,0.0786,0.079,0.0803,0,0,0.0285,0.0291,0.0311,0.0328,0.0387,0.0415,0.0488,0.0545,0.0581,0.0663,0.0666,0.0693,0.0695,0.0789,0.0889,0.0899,0,0,0,0.0307,0.0321,0.0343,0.0381,0.0431,0.0485,0.0542,0.0581,0.0664,0.0613,0.0729,0.0731,0.079,0.0787,0.0796,0.076,0.0704,0.0704,0.0703,0.03,0.0333,0.0371,0.0421,0.0465,0.0544,0.0606,0.0676,0.0691,0.0737,0.0755,0.086,0.0856,0.0863,0.0825,0.0783,0.0783,0.0783,0.0783,0.0321,0.0348,0.0389,0.0433,0.0492,0.0551,0.0666,0.0701,0.0833,0.0801,0.0859,0.0816,0.0872,0.0829,0.0784,0.0783,0.0783,0.0783,0.0783,0.032,0.0336,0.0362,0.0416,0.0474,0.0545,0.0648,0.0732,0.0839,0.09,0.095,0.095,0.0894,0.0942,0.0942,0.0943,0.0943,0.0943,0.0944,0.0306,0.0334,0.035,0.0401,0.0424,0.0491,0.0643,0.0757,0.0912,0.0972,0.0973,0.0933,0.091,0.0883,0.095,0.0949,0.0948,0.0948,0.0947,0.0311,0.0311,0.033,0.0346,0.0411,0.0498,0.0622,0.0859,0.0993,0.1086,0.1033,0.1038,0.1055,0.1047,0.1026,0.1127,0.1127,0.1127,0.1127,0.0301,0.0308,0.0321,0.0339,0.0399,0.0504,0.0711,0.0903,0.1062,0.1094,0.1087,0.1017,0.1011,0.1021,0.1014,0.0991,0.1081,0.1081,0.108,0.03,0.0304,0.0306,0.0331,0.0395,0.0544,0.0742,0.0878,0.1021,0.1074,0.104,0.1042,0.0931,0.0925,0.0929,0.0923,0.088,0,0]}],[{"header":{"parameterUnit":"m.s-1","parameterCategory":2,"la1":30.2992,"la2":30.254,"lo1":-89.0895,"lo2":-89.0443,"dy":0.0025,"dx":0.0025,"nx":19,"ny":19,"refTime":"2026-05-15T21:00:00:Z","depth":"2","parameterNumber":2,"parameterNumberName":"U-component_of_CURRENTS"},"data":[0,0,0,0.1123,0.1123,0.1151,0.1151,0.123,0.1231,0,0,0,0,0,0,0,0,0,0,0,0.1121,0.1122,0.1123,0.1123,0.1151,0.1151,0.123,0.1231,0,0,0,0,0,0,0,0,0,0,0,0.1121,0.1122,0.1122,0.1123,0.1151,0.1151,0.123,0.12,0,0,0,0,0,0,0,0,0,0,0.1169,0.1162,0.1122,0.1122,0.1123,0.1151,0.1151,0.1199,0.1202,0.1227,0,0.1231,0,0.1227,0.1236,0.1237,0,0,0,0.1132,0.1159,0.116,0.1122,0.1124,0.1151,0.1141,0.12,0.1205,0.1232,0.1232,0.1235,0.1228,0.1237,0.1237,0.131,0.131,0,0,0.1131,0.1135,0.1157,0.1162,0.1132,0.114,0.1142,0.1202,0.1213,0.1233,0.1236,0.123,0.1238,0.1238,0.131,0.131,0,0,0,0.112,0.1134,0.1133,0.1159,0.1158,0.1141,0.1143,0.121,0.1208,0.1237,0.1231,0.1238,0.1239,0.131,0.131,0.1353,0,0,0,0.112,0.1127,0.1132,0.1136,0.1156,0.1179,0.1149,0.1204,0.121,0.123,0.1238,0.124,0.131,0.131,0.1351,0.1348,0,0,0,0.112,0.1127,0.1129,0.1136,0.1142,0.1177,0.1179,0.1205,0.1206,0.1237,0.124,0.1309,0.131,0.135,0.1346,0.1383,0,0,0,0.1126,0.1124,0.1129,0.1135,0.1142,0.1163,0.1178,0.1207,0.1234,0.1238,0.131,0.131,0.1349,0.1345,0.1381,0.1192,0.1184,0,0,0.1122,0.1124,0.1127,0.1132,0.114,0.116,0.1189,0.123,0.1249,0.1294,0.1295,0.1352,0.1346,0.1383,0.1217,0.1208,0,0,0,0.1125,0.1118,0.1121,0.1135,0.1159,0.1176,0.1217,0.1254,0.1314,0.1265,0.1349,0.1343,0.1365,0.1247,0.1241,0.1312,0.1312,0.1312,0.1312,0.1092,0.1114,0.112,0.1138,0.116,0.1207,0.124,0.1297,0.1326,0.1366,0.1377,0.1427,0.1302,0.1294,0.1386,0.1386,0.1387,0.1387,0.1387,0.108,0.1082,0.1121,0.1134,0.1171,0.121,0.1285,0.1324,0.1415,0.1419,0.144,0.1295,0.1289,0.139,0.139,0.1389,0.1389,0.1388,0.1388,0.1047,0.1054,0.1079,0.1135,0.1166,0.1213,0.1273,0.1342,0.1435,0.1468,0.1355,0.1351,0.1452,0.15,0.15,0.15,0.15,0.1501,0.1501,0.1014,0.1038,0.1083,0.1121,0.1157,0.1195,0.1284,0.1335,0.1358,0.1366,0.1365,0.1465,0.1462,0.1458,0.1503,0.1503,0.1502,0.1502,0.1502,0.0973,0.1008,0.1066,0.1111,0.1177,0.1165,0.1234,0.1234,0.1294,0.1274,0.1305,0.1309,0.1274,0.1276,0.1267,0.1261,0.1261,0.1261,0.1261,0.0952,0.0973,0.1063,0.1125,0.1158,0.1151,0.1093,0.0964,0.0981,0.0895,0.0911,0.0825,0.0842,0.078,0.0794,0.0774,0.0639,0.0638,0.0637,0.095,0.0977,0.1025,0.1095,0.1141,0.1108,0.0959,0.06,0.0408,0.0614,0.0815,0.1217,0.113,0.1142,0.1079,0.1088,0.1069,0,0]},{"header":{"parameterUnit":"m.s-1","parameterCategory":2,"la1":30.2992,"la2":30.254,"lo1":-89.0895,"lo2":-89.0443,"dy":0.0025,"dx":0.0025,"nx":19,"ny":19,"refTime":"2026-05-15T21:00:00:Z","depth":"2","parameterNumber":3,"parameterNumberName":"V-component_of_CURRENTS"},"data":[0,0,0,0.0014,0.0015,0.0061,0.0062,0.0171,0.0172,0,0,0,0,0,0,0,0,0,0,0,0.0006,0.0006,0.0014,0.0015,0.0061,0.0062,0.0171,0.0172,0,0,0,0,0,0,0,0,0,0,0,0.0006,0.0006,0.0006,0.0015,0.0061,0.0062,0.017,0.0126,0,0,0,0,0,0,0,0,0,0,0.0076,0.0057,0.0006,0.0006,0.0015,0.0061,0.0062,0.0123,0.0129,0.016,0,0.0165,0,0.0164,0.0179,0.018,0,0,0,0.0027,0.0052,0.0061,0.0006,0.0015,0.0061,0.0044,0.0126,0.0132,0.0168,0.0166,0.017,0.0166,0.018,0.018,0.0283,0.0283,0,0,0.0024,0.0021,0.0057,0.0065,0.0026,0.0042,0.0045,0.0129,0.0138,0.0167,0.0172,0.0167,0.0181,0.0181,0.0283,0.0283,0,0,0,0.0009,0.0019,0.0025,0.0061,0.0062,0.0043,0.0047,0.0135,0.0136,0.0173,0.0169,0.0181,0.0183,0.0282,0.0283,0.0306,0,0,0,0.0008,0.0009,0.0024,0.0023,0.0059,0.0091,0.005,0.013,0.0139,0.0168,0.0181,0.0184,0.0282,0.0283,0.0305,0.0245,0,0,0,0.0004,0.0009,0.0012,0.0023,0.0036,0.009,0.0096,0.0132,0.0136,0.018,0.0184,0.0282,0.0283,0.0304,0.0246,0.0372,0,0,0,0.0001,0.0016,0.0012,0.0032,0.0035,0.0075,0.0095,0.0135,0.0172,0.0182,0.0282,0.0283,0.0303,0.0246,0.037,0.0432,0.0446,0,0,0.0018,0.0018,0.003,0.0028,0.0047,0.0069,0.011,0.0163,0.0195,0.0259,0.0262,0.0305,0.0246,0.0372,0.0473,0.0486,0,0,0,0.0035,0.0037,0.0044,0.0055,0.0081,0.0086,0.0145,0.0187,0.026,0.0216,0.0313,0.0273,0.0354,0.0387,0.0398,0.0286,0.0286,0.0286,0.0286,0.004,0.0049,0.0054,0.006,0.008,0.0121,0.0143,0.0208,0.0274,0.0314,0.0302,0.041,0.0445,0.0454,0.035,0.035,0.035,0.035,0.035,0.0058,0.0055,0.0048,0.006,0.0059,0.0095,0.0157,0.0207,0.0326,0.033,0.0412,0.0417,0.0467,0.0352,0.0352,0.0351,0.0351,0.0351,0.0351,0.0062,0.0054,0.0063,0.0062,0.0039,0.0063,0.0114,0.018,0.0315,0.0358,0.0524,0.0524,0.0436,0.049,0.049,0.049,0.049,0.0491,0.0491,0.0066,0.0065,0.0058,0.0046,0.0011,0.0018,0.0111,0.0219,0.0428,0.051,0.0513,0.0458,0.0453,0.0445,0.0496,0.0495,0.0494,0.0494,0.0493,0.0069,0.0072,0.0043,0.0017,-0.0034,0.0025,0.011,0.0411,0.056,0.0697,0.0634,0.0629,0.0635,0.0627,0.0623,0.0718,0.0718,0.0718,0.0718,0.0059,0.0064,-0.0008,-0.007,-0.0082,0.0001,0.0293,0.0509,0.0694,0.0699,0.0699,0.0661,0.0654,0.0657,0.0648,0.0642,0.0742,0.0741,0.0741,0.005,0.0012,-0.0061,-0.0117,-0.0141,0.0052,0.0365,0.0539,0.0619,0.0734,0.0622,0.0735,0.0678,0.0667,0.0669,0.0655,0.0646,0,0]}],[{"header":{"parameterUnit":"m.s-1","parameterCategory":2,"la1":30.2992,"la2":30.254,"lo1":-89.0895,"lo2":-89.0443,"dy":0.0025,"dx":0.0025,"nx":19,"ny":19,"refTime":"2026-05-15T21:00:00:Z","depth":"4","parameterNumber":2,"parameterNumberName":"U-component_of_CURRENTS"},"data":[0,0,0,0.0344,0.0344,0.0351,0.0351,0.0394,0.0394,0,0,0,0,0,0,0,0,0,0,0,0.036,0.0361,0.0344,0.0344,0.0351,0.0351,0.0393,0.0394,0,0,0,0,0,0,0,0,0,0,0,0.036,0.0361,0.0361,0.0344,0.0351,0.0351,0.0393,0.0381,0,0,0,0,0,0,0,0,0,0,0.0371,0.0376,0.0361,0.0361,0.0344,0.0351,0.0351,0.038,0.0382,0.0398,0,0.0409,0,0.0393,0.0397,0.0397,0,0,0,0.035,0.0375,0.0376,0.0361,0.0344,0.0351,0.035,0.0381,0.0383,0.04,0.041,0.0411,0.0394,0.0397,0.0397,0.0442,0.0442,0,0,0.035,0.0361,0.0374,0.0377,0.036,0.035,0.035,0.0382,0.0392,0.041,0.0411,0.0394,0.0398,0.0398,0.0442,0.0442,0,0,0,0.0345,0.0361,0.036,0.0376,0.0369,0.035,0.035,0.0391,0.039,0.0411,0.0395,0.0398,0.0398,0.0442,0.0442,0.0373,0,0,0,0.0345,0.0357,0.036,0.0367,0.0369,0.0374,0.0358,0.0389,0.0391,0.0395,0.0398,0.0399,0.0442,0.0442,0.0374,0.0365,0,0,0,0.0357,0.0358,0.0363,0.0367,0.0365,0.0373,0.0374,0.0389,0.0381,0.0397,0.0399,0.0441,0.0442,0.0376,0.0367,0.037,0,0,0,0.0362,0.0356,0.0364,0.0348,0.0365,0.0344,0.0374,0.0377,0.039,0.0398,0.0442,0.0442,0.0376,0.0369,0.0371,0.0286,0,0,0,0.0347,0.0355,0.034,0.0346,0.0308,0.0343,0.0311,0.0352,0.0403,0.0434,0.0435,0.0374,0.0368,0.0371,0.0308,0,0,0,0,0.0329,0.0325,0.0317,0.0297,0.0289,0.028,0.0312,0.0335,0.0379,0.0411,0.0401,0.04,0.0403,0.0358,0.0444,0.0444,0.0444,0.0443,0.0443,0.0334,0.0304,0.0261,0.0234,0.0232,0.0239,0.0249,0.0293,0.0342,0.0365,0.0362,0.0346,0.0295,0.0374,0.0374,0.0373,0.0373,0.0373,0.0373,0.0266,0.0222,0.0199,0.0148,0.0145,0.0135,0.0182,0.0224,0.0285,0.0327,0.0333,0.0311,0.0367,0.0368,0.0369,0.0369,0.037,0.037,0.0371,0.0251,0.0213,0.0178,0.0079,0.0047,0.0064,0.007,0.0148,0.0238,0.0253,0.0248,0.0322,0.0308,0.0272,0.0272,0.0272,0.0272,0.0272,0.0272,0.0222,0.0176,0.0073,0.0007,-0.0054,-0.0057,0.0024,0.0059,0.0153,0.0189,0.0262,0.0313,0.0317,0.0305,0.0271,0.0271,0.0271,0.0271,0.0271,0.0169,0.0138,-0.0032,-0.0117,-0.0243,-0.0219,-0.0128,-0.0018,0.0028,0.0045,0.0154,0.016,0.0188,0.0195,0.018,0.0108,0.0107,0.0105,0,0.0128,0.0102,-0.0163,-0.0326,-0.0399,-0.0336,-0.0261,-0.0176,-0.0057,-0.0033,-0.0008,0.0112,0.0118,0.0145,0.015,0.0128,0,0,0,0.0056,-0.0032,-0.0213,-0.0383,-0.0482,-0.0358,-0.0228,-0.0184,-0.0056,-0.0067,0.0075,0.0083,0.0082,0.0269,0.0328,0.0332,0.0317,0,0]},{"header":{"parameterUnit":"m.s-1","parameterCategory":2,"la1":30.2992,"la2":30.254,"lo1":-89.0895,"lo2":-89.0443,"dy":0.0025,"dx":0.0025,"nx":19,"ny":19,"refTime":"2026-05-15T21:00:00:Z","depth":"4","parameterNumber":3,"parameterNumberName":"V-component_of_CURRENTS"},"data":[0,0,0,-0.0083,-0.0083,-0.0072,-0.0072,-0.0056,-0.0056,0,0,0,0,0,0,0,0,0,0,0,-0.0093,-0.0093,-0.0083,-0.0083,-0.0072,-0.0072,-0.0056,-0.0056,0,0,0,0,0,0,0,0,0,0,0,-0.0093,-0.0093,-0.0093,-0.0083,-0.0072,-0.0072,-0.0056,-0.0065,0,0,0,0,0,0,0,0,0,0,-0.0077,-0.008,-0.0093,-0.0093,-0.0083,-0.0072,-0.0072,-0.0066,-0.0065,-0.0059,0,-0.006,0,-0.0053,-0.0054,-0.0054,0,0,0,-0.0086,-0.0081,-0.0081,-0.0093,-0.0083,-0.0072,-0.0078,-0.0065,-0.0064,-0.0057,-0.0059,-0.0058,-0.0052,-0.0054,-0.0054,-0.0006,-0.0005,0,0,-0.0087,-0.0087,-0.0082,-0.008,-0.0082,-0.0078,-0.0078,-0.0065,-0.0063,-0.0059,-0.0058,-0.0052,-0.0054,-0.0054,-0.0006,-0.0006,0,0,0,-0.0086,-0.0088,-0.0088,-0.0081,-0.0077,-0.0078,-0.0077,-0.0063,-0.0064,-0.0058,-0.0052,-0.0054,-0.0053,-0.0006,-0.0006,0.0041,0,0,0,-0.0087,-0.0087,-0.0088,-0.0088,-0.0077,-0.0069,-0.0076,-0.0066,-0.0064,-0.0052,-0.0054,-0.0053,-0.0007,-0.0006,0.0039,0.0079,0,0,0,-0.0093,-0.0088,-0.0088,-0.0088,-0.0082,-0.0069,-0.0069,-0.0065,-0.006,-0.0054,-0.0053,-0.0007,-0.0006,0.0037,0.0075,0.0112,0,0,0,-0.0092,-0.009,-0.0088,-0.008,-0.0082,-0.0061,-0.0069,-0.0056,-0.005,-0.0054,-0.0007,-0.0006,0.0036,0.0072,0.0109,0.0062,0,0,0,-0.0089,-0.009,-0.0084,-0.0082,-0.0062,-0.0062,-0.0023,-0.0023,-0.0033,-0.0013,-0.0011,0.004,0.0075,0.0111,0.0113,0,0,0,0,-0.0082,-0.008,-0.0074,-0.006,-0.0045,-0.0005,-0.0008,0.0004,0.0025,-0.0025,0.0044,0.0065,0.0087,0.0051,-0.0002,-0.0002,-0.0002,-0.0002,-0.0002,-0.0081,-0.0069,-0.0049,-0.0029,-0.0005,0.0034,0.0067,0.0086,0.0057,0.0077,0.0106,0.0172,0.0136,0.0098,0.0098,0.0098,0.0098,0.0099,0.0099,-0.0071,-0.0057,-0.0021,0.0,0.0051,0.0092,0.0154,0.0154,0.0201,0.0161,0.0179,0.0106,0.0103,0.0103,0.0102,0.0101,0.0101,0.0101,0.01,-0.0075,-0.0063,-0.0045,0.0013,0.0097,0.0156,0.0263,0.0281,0.0258,0.0284,0.0236,0.0215,0.0209,0.0283,0.0283,0.0284,0.0284,0.0284,0.0284,-0.0089,-0.0065,-0.0025,0.0042,0.0124,0.0234,0.0335,0.0356,0.0337,0.0305,0.03,0.0235,0.0229,0.022,0.029,0.0289,0.0288,0.0287,0.0287,-0.0098,-0.009,-0.0014,0.0058,0.0238,0.0311,0.0419,0.0408,0.0425,0.0375,0.0312,0.0309,0.0293,0.0286,0.0278,0.0368,0.0367,0.0367,0,-0.0107,-0.01,0.0029,0.0168,0.0298,0.0378,0.0419,0.0422,0.0356,0.0345,0.0378,0.0306,0.0303,0.0282,0.0275,0.0265,0,0,0,-0.0105,-0.0063,0.0049,0.0179,0.0332,0.0371,0.0421,0.0388,0.0409,0.0355,0.0359,0.0361,0.0303,0.0306,0.0274,0.0267,0.0251,0,0]}]]